Kleine Brogel, Belgium

11:02 PM CEST on October 18, 2017 (GMT +0200)
Kleine-Brogel Air Base

Weather History for EBBL - March, 2013

Change the Weather History Date:

Wednesday, March 6, 2013

  Actual Average Record
Temperature  
Mean Temperature 52 °F -  
Max Temperature 66 °F 50 °F 66 °F (2013)
Min Temperature 38 °F 38 °F 26 °F (2011)
Degree Days  
Heating Degree Days 13    
Growing Degree Days 2 (Base 50)    
Moisture  
Dew Point 33 °F    
Average Humidity 55    
Maximum Humidity 81    
Minimum Humidity 13    
Precipitation  
Precipitation 0.00 in - - ()
Sea Level Pressure  
Sea Level Pressure 29.61 in    
Wind  
Wind Speed 3 mph ()    
Max Wind Speed 9 mph    
Max Gust Speed -    
Visibility 6.7 miles    
Events      
Averages and records for this station are not official NWS values.
T = Trace of Precipitation, MM = Missing Value Source: Averaged Metar Reports

Daily Weather History Graph

Daily Weather History Graph

Search for Another Location

Airport or City:

Trip Planner

Search our weather history database for the weather conditions in past years. The results will help you decide how hot, cold, wet, or windy it might be!

Date:

Astronomy

Mar. 06, 2013 Rise Set
Actual Time 7:11 AM CET 6:27 PM CET
Civil Twilight 6:38 AM CET 7:00 PM CET
Nautical Twilight 6:00 AM CET 7:39 PM CET
Astronomical Twilight 5:21 AM CET 8:18 PM CET
Moon 3:36 AM CET (3/6) 12:23 PM CET (3/6)
Length of Visible Light 12h 21m
Length of Day
11h 15m
Waning Crescent, 33% of the Moon is Illuminated
Mar 6
Waning Crescent
Mar 11
New
Mar 19
First Quarter
Mar 27
Full
Apr 3
Last Quarter

Hourly Weather History & Observations

Time (CET) Temp. Windchill Dew Point Humidity Pressure Visibility Wind Dir Wind Speed Gust Speed Precip Events Conditions
12:25 AM 41.0 °F - 33.8 °F 76% 29.71 in 6.2 mi Variable 1.2 mph - N/A   Mostly Cloudy
12:55 AM 41.0 °F - 33.8 °F 76% 29.68 in 6.2 mi Calm Calm - N/A   Mostly Cloudy
1:00 AM 42 °F - 34 °F 66% 29.72 in 11 mi Calm Calm - -   Mostly Cloudy
1:25 AM 41.0 °F - 33.8 °F 76% 29.68 in 6.2 mi Variable 2.3 mph - N/A   Mostly Cloudy
1:55 AM 39.2 °F - 33.8 °F 81% 29.68 in 6.2 mi Variable 1.2 mph - N/A   Mostly Cloudy
2:25 AM 41.0 °F - 33.8 °F 76% 29.68 in 6.2 mi Variable 2.3 mph - N/A   Overcast
2:55 AM 42.8 °F - 33.8 °F 70% 29.68 in 6.2 mi Variable 2.3 mph - N/A   Mostly Cloudy
3:25 AM 42.8 °F - 33.8 °F 70% 29.65 in 6.2 mi Variable 1.2 mph - N/A   Mostly Cloudy
3:55 AM 41.0 °F 39.0 °F 33.8 °F 76% 29.65 in 6.2 mi Variable 3.5 mph - N/A   Mostly Cloudy
4:00 AM 42 °F - 34 °F 66% 29.68 in 11 mi 4.5 mph - -   Mostly Cloudy
4:25 AM 42.8 °F 41.1 °F 33.8 °F 70% 29.65 in 6.2 mi Variable 3.5 mph - N/A   Mostly Cloudy
4:55 AM 42.8 °F - 33.8 °F 70% 29.65 in 6.2 mi Variable 2.3 mph - N/A   Mostly Cloudy
5:25 AM 42.8 °F - 33.8 °F 70% 29.65 in 6.2 mi Variable 2.3 mph - N/A   Mostly Cloudy
5:55 AM 42.8 °F - 33.8 °F 70% 29.65 in 6.2 mi Variable 2.3 mph - N/A   Mostly Cloudy
6:25 AM 42.8 °F - 33.8 °F 70% 29.65 in 6.2 mi Variable 2.3 mph - N/A   Mostly Cloudy
6:55 AM 42.8 °F - 33.8 °F 70% 29.62 in 6.2 mi Variable 2.3 mph - N/A   Mostly Cloudy
7:00 AM 43 °F - 34 °F 61% 29.65 in 11 mi 2.2 mph - -   Mostly Cloudy
7:25 AM 41.0 °F - 33.8 °F 76% 29.62 in 6.2 mi Variable 1.2 mph - N/A   Scattered Clouds
7:55 AM 42.8 °F 41.1 °F 33.8 °F 70% 29.62 in 6.2 mi Variable 3.5 mph - N/A   Scattered Clouds
8:25 AM 42.8 °F - 33.8 °F 70% 29.65 in 6.2 mi Variable 2.3 mph - N/A   Mostly Cloudy
8:55 AM 44.6 °F - 33.8 °F 66% 29.65 in 6.2 mi Variable 2.3 mph - N/A   Mostly Cloudy
9:25 AM 46.4 °F 45.2 °F 33.8 °F 62% 29.65 in 6.2 mi Variable 3.5 mph - N/A   Mostly Cloudy
9:55 AM 46.4 °F 45.2 °F 33.8 °F 62% 29.62 in 6.2 mi Variable 3.5 mph - N/A   Mostly Cloudy
10:00 AM 47 °F - 35 °F 51% 29.65 in 9 mi 4.5 mph - -   Mostly Cloudy
10:25 AM 46.4 °F 45.2 °F 35.6 °F 66% 29.62 in 6.2 mi Variable 3.5 mph - N/A   Mostly Cloudy
10:55 AM 48.2 °F - 33.8 °F 58% 29.62 in 6.2 mi ENE 4.6 mph - N/A   Mostly Cloudy
11:25 AM 50.0 °F - 33.8 °F 54% 29.62 in 6.2 mi Variable 3.5 mph - N/A   Mostly Cloudy
11:55 AM 50.0 °F - 33.8 °F 54% 29.62 in 6.2 mi Variable 2.3 mph - N/A   Mostly Cloudy
12:25 PM 53.6 °F - 35.6 °F 51% 29.62 in 6.2 mi Variable 3.5 mph - N/A   Mostly Cloudy
12:55 PM 55.4 °F - 33.8 °F 44% 29.59 in 6.2 mi ENE 5.8 mph - N/A   Mostly Cloudy
1:00 PM 55 °F - 34 °F 33% 29.62 in 9 mi ENE 6.7 mph - -   Mostly Cloudy
1:25 PM 57.2 °F - 33.8 °F 41% 29.59 in 6.2 mi ENE 6.9 mph - N/A   Mostly Cloudy
1:55 PM 59.0 °F - 33.8 °F 39% 29.59 in 6.2 mi Variable 3.5 mph - N/A   Mostly Cloudy
2:25 PM 60.8 °F - 33.8 °F 36% 29.59 in 6.2 mi Variable 3.5 mph - N/A   Mostly Cloudy
2:55 PM 62.6 °F - 33.8 °F 34% 29.56 in 6.2 mi Variable 3.5 mph - N/A   Mostly Cloudy
3:25 PM 64.4 °F - 33.8 °F 32% 29.56 in 6.2 mi Variable 2.3 mph - N/A   Mostly Cloudy
3:55 PM 66.2 °F - 26.6 °F 23% 29.56 in 6.2 mi East 5.8 mph - N/A   Mostly Cloudy
4:00 PM 66 °F - 27 °F 13% 29.57 in 9 mi East 6.7 mph - -   Clear
4:25 PM 64.4 °F - 26.6 °F 24% 29.56 in 6.2 mi ENE 9.2 mph - N/A   Scattered Clouds
4:55 PM 62.6 °F - 28.4 °F 27% 29.56 in 6.2 mi ENE 6.9 mph - N/A   Scattered Clouds
5:25 PM 62.6 °F - 30.2 °F 30% 29.56 in 6.2 mi East 5.8 mph - N/A   Scattered Clouds
5:55 PM 59.0 °F - 32.0 °F 36% 29.56 in 6.2 mi ENE 6.9 mph - N/A   Mostly Cloudy
6:25 PM 57.2 °F - 32.0 °F 38% 29.56 in 6.2 mi NE 5.8 mph - N/A   Scattered Clouds
6:55 PM 55.4 °F - 33.8 °F 44% 29.56 in 6.2 mi NE 5.8 mph - N/A   Mostly Cloudy
7:00 PM 56 °F - 33 °F 30% 29.57 in 9 mi NE 4.5 mph - -   Mostly Cloudy
7:25 PM 53.6 °F - 32.0 °F 44% 29.56 in 6.2 mi NNE 4.6 mph - N/A   Scattered Clouds
7:55 PM 53.6 °F - 33.8 °F 47% 29.56 in 6.2 mi NE 5.8 mph - N/A   Scattered Clouds
8:25 PM 51.8 °F - 33.8 °F 50% 29.56 in 6.2 mi NNE 6.9 mph - N/A   Scattered Clouds
8:26 PM 51.8 °F - 32.0 °F 47% 29.56 in 6.2 mi NNE 6.9 mph - N/A   Scattered Clouds
8:55 PM 51.8 °F - 32.0 °F 47% 29.56 in 6.2 mi NE 6.9 mph - N/A   Mostly Cloudy
9:25 PM 50.0 °F - 32.0 °F 50% 29.53 in 6.2 mi NE 6.9 mph - N/A   Partly Cloudy
9:55 PM 46.4 °F 45.2 °F 32.0 °F 57% 29.53 in 6.2 mi Variable 3.5 mph - N/A   Scattered Clouds
10:00 PM 46 °F - 31 °F 45% 29.57 in 9 mi 4.5 mph - -   Clear
10:25 PM 44.6 °F 43.1 °F 32.0 °F 61% 29.53 in 6.2 mi Variable 3.5 mph - N/A   Partly Cloudy
10:55 PM 44.6 °F - 32.0 °F 61% 29.53 in 6.2 mi Variable 1.2 mph - N/A   Partly Cloudy
11:25 PM 42.8 °F - 32.0 °F 66% 29.53 in 6.2 mi Variable 2.3 mph - N/A   Partly Cloudy
11:55 PM 41.0 °F 38.0 °F 32.0 °F 70% 29.53 in 6.2 mi NNE 4.6 mph - N/A   Mostly Cloudy